Weather in Chicago

United States     41°52′32″N   87°37′25″W
В апреле 2022 года жителям России запретили посещать сайт meteo.paraplan.net по решению Генеральной прокуратуры. Аудитория сайта уменьшилась в 10 раз. Владельцы сайта не видят смысла в поддержке погодного сервера в таких условиях. Сайт будет закрыт в октябре.
temp.,
°C
wind,
m/s
gust,
m/s
humid.,
%
clouds,
%
prec.,
mm/h
press.,
hPa
HPBL,
m
4 october, tue
tue401:00+16se33574 0.0 1025326
04:00+16s32563 0.0 1024224
07:00+14w22522 0.0 1024158
10:00+14ssw11505 0.0 1025186
13:00+15se22465 0.0 1023132
16:00+16ese33465 0.0 1021121
19:00+17ese33525 0.0 102151
22:00+18se225012 0.0 102112
5 october, wed
wed501:00+18s445569 0.0 102058
04:00+17sw4444100 0.0 1020130
07:00+16sw4541100 0.0 1020176
10:00+17sw4540100 0.0 1020227
13:00+19s3343100 0.0 101829
16:00+20se334698 0.0 101620
19:00+19se4460100 0.0 101637
22:00+19s2250100 0.0 101611
6 october, thu
thu601:00+18ssw455178 0.1 101562
04:00+17ssw595699 0.0 1014227
07:00+17wsw6955100 0.0 1014299
10:00+17w5659100 0.0 1015273
13:00+18nnw5663100 0.0 1015110
16:00+17n8107830 0.1 1016491
19:00+14n141583100 2.2 10191160
22:00+13n131472100 0.9 10221329
7 october, fri
fri701:00+12n121371100 1.1 10231547
04:00+11n121372100 0.6 10241648
07:00+11n121372100 1.8 10261478
10:00+10nnw111171100 0.6 10281341
13:00+10nnw8865100 0.8 10281440
16:00+10n66575 0.0 10271166
19:00+11nnw565162 0.0 10271630
22:00+10nnw56480 0.0 10281164
8 october, sat
sat801:00+10nw45470 0.0 1027992
04:00+10w56510 0.0 1027603
07:00+9w78580 0.0 1027412
10:00+10wsw79495 0.0 1027647
13:00+13w89385 0.0 10241357
16:00+16w810375 0.0 10211484
19:00+16wsw710375 0.0 10201131
22:00+15sw713405 0.0 1020461